THOR ABLESTAR DEB, 144

Orbit data source: Space-Track

THOR ABLESTAR DEB, 144 is space debris in LEO originally from a launch on Thu, 29 Jun 1961 UTC launched from the Air Force Eastern Test Range (AFETR). Debris objects in space refer to the collection of defunct objects orbiting the Earth. Examples of debris include non-operational satellites, rocket bodies, and fragments generated from explosions, collisions, or faulty payload assembly.

Loading next visibility...
THOR ABLESTAR DEB details
Identifier
144, 1961-015AE
Orbit
LEO
Last TLE update17 hours ago
Origin
Flag of USUSAF SSD (US)
ManufacturerUnknown
MissionSpacecraft
Bus & MotorUnknown
MassUnknown
Launch date (UTC)
1961-06-29 (63 years ago)
Launch vehicleUnknown
Launch site
Air Force Eastern Test Range (AFETR)
Object type
Payload
Rocket body
Debris
Shape & HBRUnknown
Radar Cross SectionSmall (<0.1 m²)

Expand to show TLE details & history

TLE from 17 hours ago
0 THOR ABLESTAR DEB
1 00144U 61015AE  24355.85615435  .00000544  00000-0  49054-3 0  9996
2 00144  66.4999 292.3232 0044353 337.5832  22.3305 13.91217004209056
Epoch: 2024-12-20T20:32Z
Definitive object data (Epoch: 2024-12-20T20:32:51.735Z)
Latitude-0.00005°
Longitude-105.80805°
Altitude896.48 km
Speed7.419 km/s
True Right ascension19h 29m 17s
True Declination0° 00' 00"
Sunlit
Object was in daylight at TLE epoch
Visualization TLE readout
Latitude-58.95294°
Longitude-153.48453°
Altitude923.696 km
Speed7.401 km/s
Apparent Right ascension21h 18m 08s
Apparent Declination-67° 32' 45"
Sunlit
Object is in daylight
Visualization observer readout
Local Sidereal Time12:30:21
Azimuth152.47° SSE
Elevation-52.077°
Doppler factor1
Orbital elements
Apogee altitude955.178 km
Perigee altitude890.415 km
Semi-major axis7,300.934 km
Eccentricity0.0044353
Inclination66.4999°
RAAN292.3232°
Arg. of periapsis337.5832°
True anomaly22.5246°
Mean anomaly22.3305°
Eccentric anomaly22.42745°
Mean motion3.47917 °/min
BSTAR0.00049054
Orbital period103.47 mins
Loading maneuver chart data...

THOR ABLESTAR DEB Visibility forecast

Observer location: undefined°, undefined

Span
Click to sort rows by Start time (UTC) header in descending order
Start Az.
Max El. time (UTC)
Max El. Az.
Max El.
End time (UTC)
End Az.
10 mins2024-12-21 20:48:23.573Z177.071° S2024-12-21 20:53:23.573Z118.354° SE32.175°2024-12-21 20:58:23.573Z47.832° ENE
9 mins2024-12-21 22:36:23.573Z253.997° W2024-12-21 22:40:23.573Z314.032° NW29.724°2024-12-21 22:45:23.573Z13.071° NNE
10 mins2024-12-22 05:52:23.573Z346.723° N2024-12-22 05:57:23.573Z56.94° ENE34.042°2024-12-22 06:02:23.573Z120.826° SE
9 mins2024-12-22 07:39:23.573Z305.129° NW2024-12-22 07:43:23.573Z253.713° W28.714°2024-12-22 07:48:23.573Z192.238° SSW
|